Dewpoint
48 48 49 49 49 50 51 51 51 53 52 51 51 50 50 51 51 48 43 45 43 38 36 36 34 33 33 32 30 32 30 27 25 23 20 20 19 19 19 23 25 31 29 26 27 28 28 28 27 29 41 46 47 48
48 48 48 49 50 50 51 51 52 52 53 51 50 50 50 50 51 50 43 45 45 41 38 39 38 37 36 35 33 32 31 32 26 24 23 20 19 18 23 18 24 22 25 25 25 26 35 33 32 45 44 50 49 49
48 48 48 48 49 50 50 51 52 52 52 51 50 51 50 51 51 50 45 45 43 39 36 35 35 38 37 36 35 33 32 30 31 35 37 28 28 23 19 20 25 26 27 31 33 30 30 32 45 46 48 48 50 47
49 49 49 49 49 50 50 51 52 52 52 51 51 50 50 51 51 49 44 46 43 40 35 33 34 37 37 35 37 35 32 34 34 37 34 32 28 30 28 27 26 22 29 30 32 36 38 37 45 44 43 42 46 45
49 50 49 50 50 50 50 51 52 52 52 51 50 50 50 50 51 47 45 46 46 42 38 35 37 37 36 37 37 37 35 34 33 31 29 28 28 28 28 28 26 26 30 29 31 34 39 42 42 46 42 41 39 41
50 50 50 50 50 50 50 50 52 52 52 51 51 50 50 51 51 45 43 47 47 47 44 38 38 37 36 38 38 39 37 34 32 32 30 29 25 27 28 26 28 25 26 24 29 31 31 34 41 48 44 41 39 37
49 50 50 50 50 50 50 51 52 51 52 51 50 51 50 51 46 44 46 48 49 49 45 39 35 34 36 35 36 36 36 34 33 32 32 31 31 32 30 29 30 27 29 28 26 27 29 28 32 39 40 36 37 34
49 50 50 50 50 50 51 51 51 52 50 50 50 51 51 51 49 43 44 49 47 50 45 39 35 34 38 39 37 36 34 34 36 33 32 31 32 31 30 33 34 33 32 32 32 31 28 27 28 29 30 29 29 28
49 49 50 50 50 51 51 51 51 51 51 51 51 51 48 47 47 49 50 50 49 48 41 39 34 36 37 40 46 38 38 35 36 34 34 34 33 32 33 36 36 38 39 38 37 36 35 34 33 32 32 31 30 30
50 50 50 51 51 51 51 51 51 51 51 51 48 45 43 48 51 51 50 46 45 45 43 39 38 34 37 41 43 43 44 40 38 38 38 36 35 38 38 39 41 41 40 40 40 41 41 40 37 37 35 35 35 35
51 51 50 51 51 51 51 51 51 51 50 46 46 45 48 49 46 48 41 41 40 39 39 39 37 36 44 39 41 41 41 42 37 39 37 35 34 38 42 42 44 43 44 44 44 44 42 43 42 41 40 40 38 38
50 51 51 51 51 51 51 51 51 48 46 46 44 44 43 42 42 39 38 40 38 35 37 39 43 43 44 43 41 41 39 40 36 40 38 34 36 46 45 46 46 45 45 44 45 46 46 46 45 45 44 43 42 41
51 52 51 52 52 51 51 50 50 50 49 47 44 41 41 40 37 31 29 35 35 36 42 43 42 43 44 43 41 40 37 37 43 39 37 36 42 46 49 47 47 46 46 47 47 48 49 49 48 48 47 46 44 43
51 51 51 52 52 51 50 50 50 50 48 44 40 37 37 36 37 33 33 38 44 42 43 43 44 44 43 40 40 36 39 41 38 36 38 37 46 48 50 49 47 47 47 47 49 49 50 50 50 52 50 49 47 45
51 51 51 51 51 51 51 50 50 50 47 41 39 35 34 37 39 39 39 39 40 42 42 45 44 43 44 40 39 39 37 36 38 35 39 45 50 51 50 49 48 48 48 48 50 49 49 51 51 51 51 50 50 47
51 51 51 50 50 50 51 50 50 50 46 42 41 37 39 40 39 41 42 42 45 42 42 42 41 40 41 42 39 37 38 37 38 42 46 48 51 51 51 51 50 50 50 51 52 53 45 47 47 48 50 51 51 49
50 47 50 50 50 50 50 49 48 43 41 40 40 42 42 42 41 42 43 43 48 44 41 42 39 39 44 40 39 41 40 40 46 47 49 53 51 49 50 50 50 52 53 53 55 56 48 45 46 47 51 54 49 48
46 46 49 50 50 49 49 48 44 42 39 42 40 43 44 44 43 43 45 46 44 43 43 40 42 40 37 37 39 44 47 48 47 49 50 50 50 51 51 52 54 55 55 57 55 50 47 47 46 47 50 50 50 47
48 49 50 50 50 48 44 45 46 40 41 44 44 45 44 44 45 45 46 47 46 47 44 44 40 39 40 41 43 44 45 47 46 48 50 50 51 51 52 53 55 57 57 53 48 48 50 50 50 46 46 46 45 44
51 50 50 51 50 46 42 44 48 43 40 43 44 43 44 45 47 47 46 46 45 44 42 40 41 42 42 46 48 48 48 49 49 47 49 50 52 53 54 54 57 57 58 57 55 49 46 46 45 44 44 46 45 42
49 49 49 50 48 47 44 43 43 44 44 43 45 45 44 48 47 46 46 47 44 43 42 44 44 47 49 47 48 51 51 51 50 51 50 51 53 54 55 57 58 57 56 57 56 55 53 54 55 58 57 58 61 62
48 49 49 50 46 46 45 46 44 46 44 44 44 46 45 45 46 48 48 44 44 46 47 48 47 48 49 51 52 53 53 53 53 53 51 52 54 55 55 56 57 56 56 57 57 57 58 60 62 63 63 64 62 66
49 49 48 47 44 44 43 48 44 45 42 44 47 45 45 46 48 48 45 47 48 50 50 51 52 52 52 53 54 54 54 53 53 54 56 55 57 57 56 56 56 55 55 56 58 58 58 53 59 63 64 66 68 68
49 47 45 46 47 45 47 47 48 47 47 47 46 43 44 48 50 46 43 46 50 51 52 53 54 52 53 52 52 53 55 56 57 59 54 52 53 51 57 56 55 55 56 58 58 58 59 59 56 61 61 62 63 64
43 43 46 42 46 45 44 44 43 43 42 43 41 42 46 49 44 42 42 46 49 50 52 53 53 53 52 53 54 55 57 57 56 53 56 54 50 50 50 50 52 54 57 56 55 55 57 60 60 58 59 60 61 61
40 46 44 46 46 46 45 44 44 44 43 41 41 41 47 45 40 40 45 49 50 51 52 53 52 52 53 55 54 55 56 60 61 56 51 50 50 51 51 49 49 50 53 55 54 53 54 56 56 57 58 57 52 58
43 46 47 50 49 49 48 47 46 44 40 39 39 41 43 41 42 46 50 52 53 54 55 56 56 55 55 56 57 57 57 61 59 57 57 48 50 51 51 49 50 51 52 53 53 53 53 55 54 55 56 56 55 55
47 48 47 48 49 50 48 44 40 41 42 41 39 39 41 42 44 51 53 56 60 59 59 60 61 59 58 57 57 60 61 55 48 45 44 45 47 49 51 51 51 46 50 50 51 52 52 52 52 52 52 54 55 55
47 48 48 49 48 49 49 46 44 48 53 44 41 41 42 43 45 45 49 50 51 54 54 56 58 61 56 49 46 47 44 43 42 43 43 41 41 42 45 48 51 51 50 50 44 46 49 49 50 50 51 52 53 53
49 51 48 48 46 46 49 50 52 50 50 55 53 53 49 44 46 46 46 46 42 41 45 48 48 48 50 50 43 42 44 45 43 42 43 42 42 43 43 42 42 46 49 50 47 47 44 46 45 47 47 49 49 50
53 52 49 50 48 49 48 48 50 47 45 47 48 51 50 44 45 46 46 45 44 43 41 40 41 43 43 43 44 42 40 45 47 46 45 43 43 45 44 44 43 43 42 42 43 43 43 44 45 46 45 45 45 43
53 50 50 46 48 48 48 49 46 45 47 47 47 47 45 44 45 45 47 46 43 42 43 43 42 43 43 42 43 44 44 42 44 45 47 46 46 47 45 42 44 44 43 43 44 43 44 44 44 44 44 46 46 46
52 52 51 49 48 45 46 46 45 46 46 47 44 43 41 42 43 44 46 46 46 45 45 45 44 43 45 45 46 44 43 44 46 43 43 42 41 42 42 43 43 43 41 41 41 43 44 46 45 46 46 46 46 46
Lifted_Index
16 16 16 15 15 14 13 13 12 11 11 12 12 12 11 11 11 10 10 9 9 8 7 8 8 8 7 7 6 6 7 7 7 7 7 6 6 5 5 4 4 4 4 4 3 3 2 2 1 -0 -1 -2 -2 -2
16 16 15 15 14 14 13 12 11 11 11 11 11 11 11 11 11 10 9 9 9 8 7 7 7 8 7 7 6 6 6 6 6 7 6 6 6 6 5 5 5 5 4 4 3 3 2 2 1 0 -0 -1 -1 -1
15 14 14 14 13 13 12 11 11 10 10 10 10 10 10 10 9 9 9 8 8 8 7 7 7 7 7 7 7 6 6 6 6 6 5 6 6 6 6 6 5 5 4 4 3 3 2 2 2 1 1 0 0 0
13 13 13 12 12 11 11 10 10 9 9 9 10 9 9 9 9 8 8 7 7 7 6 6 6 6 6 6 6 6 6 6 6 5 5 5 6 6 6 6 6 6 5 5 4 3 2 2 3 3 3 3 2 2
11 11 11 10 10 10 10 9 9 9 9 9 9 9 9 8 8 8 8 7 7 7 6 5 5 5 5 5 5 5 5 6 5 5 5 5 6 6 7 7 7 6 6 6 5 4 3 3 3 4 4 5 4 4
9 9 9 9 9 9 9 9 8 8 8 8 8 8 9 9 9 8 7 7 7 7 7 6 5 5 5 5 5 4 4 5 5 5 5 5 6 6 7 7 7 7 7 7 6 6 5 5 5 5 5 6 6 6
8 8 8 8 8 8 8 8 8 8 8 8 8 8 9 9 9 8 7 7 7 7 7 6 5 5 5 5 4 4 4 4 4 5 5 5 5 6 7 7 7 6 7 7 7 7 7 7 7 7 7 7 8 8
7 7 7 7 7 7 7 7 7 7 8 8 8 8 9 9 9 8 8 8 8 7 7 6 5 5 5 5 4 4 4 4 4 4 4 4 5 5 6 6 6 5 6 7 7 8 8 9 9 9 9 9 10 10
6 7 7 7 7 7 7 7 8 8 8 8 8 8 8 8 8 8 8 8 8 7 7 6 5 5 5 5 4 4 4 4 4 4 4 4 4 5 5 5 5 5 5 6 7 7 8 9 10 10 10 11 11 11
6 7 7 7 7 7 7 8 8 8 8 8 8 7 7 7 7 7 7 8 7 7 7 6 5 5 5 4 4 4 4 4 3 4 4 4 4 4 5 4 4 4 5 5 6 7 7 8 9 9 10 11 11 11
7 7 7 7 7 8 8 8 8 8 8 8 7 7 7 7 7 7 7 7 7 7 7 6 5 5 4 4 3 4 4 3 3 4 4 4 3 3 3 3 4 4 4 5 5 6 6 7 7 8 9 10 10 11
8 8 8 8 8 8 8 8 9 9 8 8 7 7 7 7 7 6 6 6 6 6 5 5 5 4 4 4 4 4 4 4 4 4 4 3 2 2 2 2 3 3 4 4 5 5 5 6 6 7 7 8 9 9
8 8 8 8 8 8 8 9 9 9 9 8 8 8 7 7 6 6 5 5 5 5 4 4 4 4 4 4 4 4 4 4 4 4 3 2 2 1 1 2 3 3 4 4 4 4 4 5 5 5 6 6 7 8
9 9 9 9 8 9 9 9 9 9 9 8 8 7 7 6 6 5 5 5 4 4 4 4 4 4 4 4 4 4 4 4 4 3 2 2 1 1 2 2 3 3 4 3 3 3 3 3 3 4 5 5 6 6
9 9 9 9 9 9 9 9 9 9 9 8 7 6 6 6 5 5 5 5 5 5 5 5 4 4 4 4 4 4 4 4 3 2 2 1 1 1 2 3 3 3 3 3 3 3 3 3 3 3 4 4 5 5
10 9 9 10 10 9 9 10 9 9 9 8 7 6 6 6 5 5 5 6 6 6 5 5 4 4 4 4 4 4 4 3 2 2 1 1 2 2 3 3 3 3 3 3 2 2 3 4 4 4 3 3 4 5
10 10 10 10 10 10 10 10 9 9 8 7 6 6 6 6 5 5 5 6 6 6 6 5 5 4 3 3 3 3 3 3 2 2 2 2 3 3 3 3 2 2 2 2 1 2 3 5 5 4 4 3 4 4
10 10 10 10 10 9 9 9 9 8 6 6 5 5 6 5 5 5 5 6 6 6 6 5 5 4 3 3 3 3 3 3 3 3 3 3 3 3 2 2 1 1 1 1 1 2 4 4 5 4 4 4 4 4
10 10 10 10 9 9 8 8 8 6 5 5 5 5 5 4 4 5 5 5 6 6 5 5 4 4 3 3 3 3 4 4 4 4 4 4 3 2 1 1 1 0 -0 0 2 3 3 3 3 4 4 4 4 4
10 10 10 9 9 8 7 7 7 5 4 4 4 4 4 4 4 4 4 5 5 5 4 4 4 4 4 4 4 4 4 4 4 4 4 3 3 2 1 1 -0 -0 -0 0 1 2 2 2 2 3 3 3 3 3
9 9 9 8 8 7 6 5 5 5 4 4 4 3 3 3 4 4 4 4 4 4 4 4 4 4 4 4 4 4 4 4 4 4 3 3 2 2 2 1 -0 -0 0 0 -0 -0 -0 0 0 -0 -0 -0 -1 -1
7 7 7 6 6 5 5 4 4 4 3 3 3 3 3 3 3 4 4 4 4 4 4 4 4 4 4 4 4 4 4 3 3 3 2 2 2 2 2 2 1 1 1 0 -1 -2 -2 -2 -3 -3 -3 -4 -4 -5
6 6 5 5 4 4 4 3 3 3 2 2 2 2 2 2 3 3 3 4 4 4 4 4 4 4 4 4 4 4 3 3 2 2 1 2 2 2 2 2 2 2 2 1 -0 -2 -3 -3 -4 -4 -5 -5 -6 -6
5 4 4 3 3 3 3 2 2 2 2 2 2 2 2 2 2 3 3 3 4 3 3 3 3 4 4 4 4 3 3 2 1 1 1 2 2 2 3 3 3 3 3 2 1 -1 -2 -3 -3 -4 -4 -4 -5 -5
3 3 3 2 2 2 2 1 1 1 1 2 2 2 2 2 2 2 3 3 3 3 3 3 3 3 3 3 3 3 2 1 1 1 2 2 3 3 3 3 3 4 4 4 3 1 -1 -2 -2 -3 -3 -3 -3 -3
2 2 2 1 1 1 1 1 0 1 1 2 2 2 2 2 2 3 3 3 3 3 3 2 3 3 3 3 2 2 1 1 1 1 2 3 3 3 3 4 4 4 4 4 4 3 2 1 -0 -1 -2 -2 -2 -2
2 2 1 1 1 1 1 1 0 1 1 2 2 3 3 3 3 3 3 2 2 2 2 2 2 2 2 1 1 1 1 1 1 2 2 3 3 3 4 4 4 4 4 4 4 4 3 3 2 2 1 -0 -1 -1
2 1 1 1 0 0 0 0 1 1 1 2 2 2 3 3 2 2 2 2 1 1 1 1 1 1 1 1 1 1 1 2 2 3 3 4 4 4 4 4 4 4 4 3 3 3 3 3 4 4 3 2 1 1
1 1 1 0 -0 -0 -0 0 0 0 0 1 1 1 2 2 2 2 2 2 2 1 1 1 1 1 1 1 2 2 3 3 3 4 4 4 4 4 4 4 4 4 4 4 3 4 4 4 4 4 4 4 3 2
1 1 0 -0 -0 -0 -0 -0 -0 -0 -0 -0 -0 0 1 1 1 1 2 2 2 2 2 2 2 2 2 2 3 4 4 4 4 4 4 4 4 4 4 4 4 4 4 4 4 5 5 5 4 4 4 4 4 4
0 0 -0 -0 -0 -0 -0 -0 -0 -0 -0 -0 -0 -0 0 0 1 1 2 2 2 2 2 3 3 2 3 3 4 4 4 4 4 4 3 3 3 4 4 4 4 4 4 4 4 5 5 5 4 4 4 5 5 5
-0 -1 -1 -0 -0 -0 -0 -0 -0 -0 -0 -0 -0 0 0 0 1 1 2 2 2 2 2 2 2 2 3 3 3 3 3 4 4 4 4 4 4 4 4 4 4 3 4 4 4 4 4 4 4 4 4 4 4 4
-1 -1 -1 -1 -0 -0 -0 -0 -0 -0 -0 -0 0 1 1 1 1 1 2 2 2 2 2 2 2 2 2 2 2 3 3 3 4 4 4 4 4 4 4 4 4 3 3 3 3 3 3 3 3 3 3 3 4 4